Weather History for Cannes, France

Change the Weather History Date:

Tuesday, November 5, 2013

  Actual Average Record
Temperature  
Mean Temperature 58 °F -  
Max Temperature 69 °F 58 °F - ()
Min Temperature 46 °F 45 °F - ()
Degree Days  
Heating Degree Days 8    
Growing Degree Days 8 (Base 50)    
Moisture  
Dew Point 44 °F    
Average Humidity 63    
Maximum Humidity 93    
Minimum Humidity 30    
Precipitation  
Precipitation 0.00 in - - ()
Sea Level Pressure  
Sea Level Pressure 29.46 in    
Wind  
Wind Speed 4 mph ()    
Max Wind Speed 15 mph    
Max Gust Speed 25 mph    
Visibility 6.2 miles    
Events      
T = Trace of Precipitation, MM = Missing Value Source: Averaged Metar Reports

Daily Weather History Graph

Daily Weather History Graph

Search for Another Location

Airport:

Trip Planner

Search our weather history database for the weather conditions in past years. The results will help you decide how hot, cold, wet, or windy it might be!

Date:

Astronomy

Nov. 05, 2013 Rise Set
Actual Time 7:12 AM CET 5:18 PM CET
Civil Twilight 6:42 AM CET 5:48 PM CET
Nautical Twilight 6:08 AM CET 6:22 PM CET
Astronomical Twilight 5:35 AM CET 6:55 PM CET
Moon 9:13 AM CET (11/5) 7:00 PM CET (11/5)
Length of Visible Light 11h 05m
Length of Day
10h 05m
Waxing Crescent, 5% of the Moon is Illuminated
Nov 5
Waxing Crescent
Nov 10
First Quarter
Nov 17
Full
Nov 25
Last Quarter
Dec 3
New

Hourly Weather History & Observations

Time (CET) Temp. Windchill Dew Point Humidity Pressure Visibility Wind Dir Wind Speed Gust Speed Precip Events Conditions
12:00 AM 53.6 °F - 46.4 °F 77% 29.42 in 6.2 mi Variable 2.3 mph - N/A   Unknown
12:30 AM 50.0 °F - 44.6 °F 82% 29.42 in 6.2 mi Variable 2.3 mph - N/A   Unknown
1:00 AM 50.0 °F - 44.6 °F 82% 29.42 in 6.2 mi NNW 3.5 mph - N/A   Unknown
1:30 AM 48.2 °F - 44.6 °F 87% 29.42 in 6.2 mi NNW 4.6 mph - N/A   Unknown
2:00 AM 48.2 °F - 46.4 °F 93% 29.42 in 6.2 mi NNE 4.6 mph - N/A   Unknown
2:30 AM 48.2 °F - 44.6 °F 87% 29.42 in 6.2 mi Variable 3.5 mph - N/A   Unknown
3:00 AM 48.2 °F - 44.6 °F 87% 29.42 in 6.2 mi Variable 2.3 mph - N/A   Unknown
3:30 AM 48.2 °F - 44.6 °F 87% 29.42 in 6.2 mi Variable 2.3 mph - N/A   Unknown
4:00 AM 46.4 °F - 44.6 °F 93% 29.42 in 6.2 mi Variable 2.3 mph - N/A   Unknown
4:30 AM 46.4 °F 45.2 °F 44.6 °F 93% 29.42 in 6.2 mi North 3.5 mph - N/A   Unknown
5:00 AM 46.4 °F 45.2 °F 44.6 °F 93% 29.42 in 6.2 mi Variable 3.5 mph - N/A   Unknown
5:30 AM 46.4 °F 45.2 °F 44.6 °F 93% 29.42 in 6.2 mi North 3.5 mph - N/A   Unknown
6:00 AM 46.4 °F 44.3 °F 44.6 °F 93% 29.42 in 6.2 mi North 4.6 mph - N/A   Unknown
6:30 AM 46.4 °F - 44.6 °F 93% 29.42 in 6.2 mi Variable 2.3 mph - N/A   Unknown
7:00 AM 46.4 °F 45.2 °F 44.6 °F 93% 29.44 in 6.2 mi Variable 3.5 mph - N/A   Unknown
7:30 AM 46.4 °F 44.3 °F 44.6 °F 93% 29.44 in 6.2 mi North 4.6 mph - N/A   Unknown
8:00 AM 46.4 °F 45.2 °F 44.6 °F 93% 29.44 in 6.2 mi Variable 3.5 mph - N/A   Unknown
8:30 AM 50.0 °F - 46.4 °F 87% 29.47 in 6.2 mi North 3.5 mph - N/A   Unknown
9:00 AM 53.6 °F - 48.2 °F 82% 29.47 in 6.2 mi Variable 2.3 mph - N/A   Unknown
9:30 AM 57.2 °F - 50.0 °F 77% 29.47 in 6.2 mi Variable 2.3 mph - N/A   Unknown
10:00 AM 62.6 °F - 50.0 °F 63% 29.47 in 6.2 mi Calm Calm - N/A   Unknown
10:30 AM 60.8 °F - 50.0 °F 68% 29.47 in 6.2 mi Variable 2.3 mph - N/A   Unknown
11:00 AM 60.8 °F - 51.8 °F 72% 29.50 in 6.2 mi Variable 2.3 mph - N/A   Unknown
11:30 AM 62.6 °F - 48.2 °F 59% 29.50 in 6.2 mi Variable 2.3 mph - N/A   Unknown
12:00 PM 62.6 °F - 42.8 °F 48% 29.47 in 6.2 mi SW 3.5 mph - N/A   Unknown
12:30 PM 62.6 °F - 46.4 °F 55% 29.47 in 6.2 mi Variable 2.3 mph - N/A   Unknown
1:00 PM 64.4 °F - 48.2 °F 56% 29.47 in 6.2 mi Variable 1.2 mph - N/A   Unknown
1:30 PM 64.4 °F - 50.0 °F 59% 29.47 in 6.2 mi Calm Calm - N/A   Unknown
2:00 PM 66.2 °F - 48.2 °F 52% 29.44 in 6.2 mi Calm Calm - N/A   Unknown
2:30 PM 64.4 °F - 46.4 °F 52% 29.47 in 6.2 mi Variable 2.3 mph - N/A   Unknown
3:00 PM 64.4 °F - 41.0 °F 42% 29.44 in 6.2 mi SSE 3.5 mph - N/A   Unknown
3:30 PM 68.0 °F - 35.6 °F 30% 29.44 in 6.2 mi Variable 4.6 mph 19.6 mph N/A   Unknown
4:00 PM 68.0 °F - 35.6 °F 30% 29.44 in 6.2 mi WNW 15.0 mph - N/A   Unknown
4:30 PM 68.0 °F - 35.6 °F 30% 29.44 in 6.2 mi WNW 13.8 mph - N/A   Unknown
5:00 PM 66.2 °F - 37.4 °F 35% 29.44 in 6.2 mi West 13.8 mph - N/A   Unknown
5:30 PM 64.4 °F - 37.4 °F 37% 29.47 in 6.2 mi WNW 10.4 mph - N/A   Unknown
6:00 PM 64.4 °F - 39.2 °F 40% 29.47 in 6.2 mi West 10.4 mph - N/A   Unknown
6:30 PM 64.4 °F - 41.0 °F 42% 29.47 in 6.2 mi West 11.5 mph - N/A   Unknown
7:00 PM 64.4 °F - 41.0 °F 42% 29.47 in 6.2 mi West 10.4 mph 21.9 mph N/A   Unknown
7:30 PM 66.2 °F - 41.0 °F 40% 29.47 in 6.2 mi West 11.5 mph - N/A   Unknown
8:00 PM 66.2 °F - 41.0 °F 40% 29.47 in 6.2 mi West 10.4 mph - N/A   Unknown
8:30 PM 68.0 °F - 41.0 °F 37% 29.50 in 6.2 mi West 12.7 mph - N/A   Unknown
9:00 PM 68.0 °F - 41.0 °F 37% 29.50 in 6.2 mi WNW 10.4 mph - N/A   Unknown
9:30 PM 68.0 °F - 41.0 °F 37% 29.53 in 6.2 mi West 10.4 mph - N/A   Unknown
10:00 PM 68.0 °F - 41.0 °F 37% 29.53 in 6.2 mi WNW 11.5 mph - N/A   Unknown
10:30 PM 68.0 °F - 41.0 °F 37% 29.50 in 6.2 mi NW 8.1 mph - N/A   Unknown
11:00 PM 69.8 °F - 39.2 °F 33% 29.50 in 6.2 mi NW 10.4 mph - N/A   Unknown
11:30 PM 69.8 °F - 39.2 °F 33% 29.50 in 6.2 mi NW 12.7 mph 25.3 mph N/A   Unknown